STARLINK-32955, 63117

Orbit data source: Space-Track

STARLINK-32955, 63117 is a payload satellite owned by SpaceX/Seattle (US) in LEO that was launched on Thu, 27 Feb 2025 UTC via an FALCON 9 launch vehicle from the Air Force Eastern Test Range (AFETR). Payload-class satellites include a variety of spacecraft equipped with specific instruments for various scientific and technological missions. These include communications satellites like Starlink; space stations such as the ISS; scientific satellites like the Hubble; Earth observation satellites from companies like Planet Labs, Umbra, and HawkEye 360; GPS; miniature CubeSats for education and research; and military/defense satellites.

Loading next visibility...
Identifier
63117, 2025-039P
Orbit
LEO
Country
Flag of USUS
Related business
Manufacturer
SpaceX/Seattle
Mission
Operational Commercial Communications
Bus & Motor
STARLINK V2M, Unknown motor
Mass
730 kg wet, ~700 kg dry
Launch date (UTC)
2025-02-27 (7 months ago)
Launch vehicle
FALCON 9
Launch site
Air Force Eastern Test Range (AFETR)
Object type
Payload
Rocket body
Debris
Shape & HBR
Box + 2 Pan, 14.5 m
Radar Cross Section
33.884 m², Large (>1 m²)

Expand to show TLE details & history
Last TLE update: 1 day ago

TLE from 1 day ago
0 STARLINK-32955
1 63117U 25039P   25257.10566322  .00022160  00000-0  81209-3 0  9997
2 63117  42.9998 289.7695 0001875 278.5955  81.4684 15.27591931 31063
Epoch: 2025-09-14T02:32Z
TLE epoch observation values (Epoch: 2025-09-14T02:32:09.302Z)
Latitude
-0.00002°
Longitude
-101.59872°
Altitude
482.598 km
Speed
7.626 km/s
True Right ascension
19h 19m 04s
True Declination
0° 00' 00"
Sunlit
Object was in full shadow at epoch
Visualization orbit readout
Latitude
Unknown
Longitude
Unknown
Altitude
Unknown
Speed
Unknown
Apparent Right ascension
Unknown
Apparent Declination
Unknown
Sunlit
N/A
Visualization observer readout
Local Sidereal Time
21:18:51
Azimuth
Unknown
Elevation
Unknown
Doppler factor
Unknown
Orbital elements
Apogee altitude
486.245 km
Perigee altitude
483.672 km
Semi-major axis
6,863.096 km
Eccentricity
0.00019
Inclination
42.9998°
RAAN
289.7695°
Arg. of periapsis
278.5955°
True anomaly
81.48965°
Mean anomaly
81.4684°
Eccentric anomaly
81.47902°
Mean motion
3.81736 °/min
Orbital period
94.31 mins
BSTAR
0.00081209
Loading maneuver chart data...
Computing Atmospheric mass density...
Loading historical data...
Loading historical data...
Loading historical data...
Loading historical data...
Loading historical data...
Loading historical data...
Loading historical data...

Documentation

Showing up to 5 results
|